Flag for Canada Weather past 2 weeks in St. Catharines, Ontario, Canada

Now
33 °F

Chilly.


Feels Like: 25 °F
Forecast: 25 / 34 °F
Wind: 9 mph from Northwest

Location: Port Colborne Airport

Current Time: Mar 27, 2015 at 7:13:36 AM

Latest Report: Mar 27, 2015 at 6:00 AM


Visibility: N/A

Pressure: 29.86 "Hg

Humidity: 78%

Dew point: 27 °F

Location of St. CatharinesLocation

Historic Weather in St. Catharines — Graph

°F

St. Catharines temperature yesterday

Maximum temperature yesterday: 37 °F (at 2:00 AM)
Minimum temperature yesterday: 31 °F (at 9:00 PM)
Average temperature yesterday: 33 °F

Past Weeks' High & Low Weather Summary

 TemperatureHumidityPressure
High54 °F (Mar 13, 5:00 PM)100% (Mar 26, 12:00 PM)30.65 "Hg (Mar 26, 12:00 PM)
Low17 °F (Mar 23, 9:00 AM)19% (Mar 13, 2:00 PM)29.65 "Hg (Mar 17, 3:00 AM)
Average31 °F65%30.14 "Hg
* Reported Mar 12 5:00 AM — Mar 27 5:00 AM, St. Catharines, Weather by CustomWeather, © 2015

Note: Actual official high and low records may vary slightly from our data, if they occured in-between our weather recording intervals... More about our weather records

Advertising

St. Catharines weather history for previous 24 hours

 ConditionsComfort  
Time TempWeatherWind HumidityBarometerVisibility
5:00 AM
Fri, Mar 27
32 °FChilly.10 mph90%29.84 "HgN/A
4:00 AM33 °FChilly.13 mph82%29.84 "HgN/A
3:00 AM31 °FChilly.10 mph93%29.84 "HgN/A
2:00 AM31 °FChilly.13 mph94%29.83 "HgN/A
1:00 AM32 °FChilly.13 mph94%29.85 "HgN/A
12:00 AM32 °FChilly.13 mph95%29.85 "HgN/A
11:00 PM
Thu, Mar 26
31 °FChilly.15 mph98%29.86 "HgN/A
10:00 PM31 °FChilly.14 mph98%29.86 "HgN/A
9:00 PM31 °FChilly.14 mph100%29.86 "HgN/A
8:00 PM31 °FChilly.13 mph98%29.84 "HgN/A
7:00 PM31 °FChilly.12 mph98%29.83 "HgN/A
6:00 PM31 °FChilly.12 mph97%29.83 "HgN/A
5:00 PM31 °FChilly.9 mph98%29.81 "HgN/A
4:00 PM31 °FChilly.8 mph98%29.80 "HgN/A
3:00 PM31 °FChilly.8 mph97%29.81 "HgN/A
2:00 PM33 °FChilly.7 mph92%29.81 "HgN/A
1:00 PM33 °FChilly.6 mph92%29.82 "HgN/A
12:00 PM33 °FChilly.2 mph100%29.84 "HgN/A
11:00 AM32 °FChilly.3 mph95%29.87 "HgN/A
10:00 AM33 °FChilly.3 mph91%29.88 "HgN/A
9:00 AM34 °FChilly.7 mph90%29.91 "HgN/A
8:00 AM33 °FChilly.7 mph93%29.92 "HgN/A
7:00 AM33 °FChilly.5 mph93%29.89 "HgN/A
Weather by CustomWeather, © 2015

See weather overviewHow to use our weather pages